User: anonymous   Login
Location: ?????oe
(44.4874°N, 135.7046°E)
Time: 02:15:15
(UTC+00:00)
Language:

Cosmos 1627 Rocket - Orbit

View from above orbital plane
View from above orbital plane
View from above satellite
View from above satellite

Ground track
Ground track

The orbit is defined by the following mean orbital elements,

1 15506U          26042.15700832 +.00000000 +00000-0 +79863-4 0 00007
2 15506  82.9180 107.3722 0035705 210.7600 167.6592 13.76504741    09
Epoch (UTC): 11 February 2026 03:46:05
Eccentricity: 0.0035705
inclination: 82.9180°
perigee height: 950 km
apogee height: 1003 km
right ascension of ascending node: 107.3722°
argument of perigee: 210.7600°
revolutions per day: 13.76504741
mean anomaly at epoch: 167.6592°

The dashed part of the orbit path shows where the satellite is in the earth's shadow,  

DLR